Terug naar catalogus

ERS 1

ActiefWetenschapSSO
NORAD 21574·PAYLOAD·🇪🇺 EU

Gelanceerd Jul 17, 1991 vanaf Guiana Space Centre

Loading…

Volgende Passages (komende 24 uur)

TLE

VersSource: Space-Track

Epoch: Sep 14, 2026, 11:31 UTC

1 21574U 91050A   26257.48055152  .00000192  00000-0  76020-4 0  9997
2 21574  98.7778 280.3536 0031903   4.1698 355.9749 14.39564537842898

Volg ERS 1 in realtime met AllMySat

Download on the App Store